Time,TemperatureF,DewpointF,PressureIn,WindDirection,WindDirectionDegrees,WindSpeedMPH,WindSpeedGustMPH,Humidity,HourlyPrecipIn,Conditions,Clouds,dailyrainin,SoftwareType,DateUTC
2013-02-17 00:01:00,43.0,4.0,29.82,East,90,0.0,0.0,19,0.00,,,0.00,,2013-02-17 08:01:00,
2013-02-17 00:11:00,43.0,4.0,29.82,East,90,0.0,0.0,19,0.00,,,0.00,,2013-02-17 08:11:00,
2013-02-17 00:21:00,40.0,1.0,29.82,East,90,3.0,5.0,19,0.00,,,0.00,,2013-02-17 08:21:00,
2013-02-17 00:31:00,39.0,0.0,29.79,East,90,0.0,3.0,19,0.00,,,0.00,,2013-02-17 08:31:00,
2013-02-17 00:41:00,39.0,0.0,29.79,East,90,0.0,3.0,19,0.00,,,0.00,,2013-02-17 08:41:00,
2013-02-17 00:52:00,40.0,1.0,29.79,East,90,1.0,3.0,19,0.00,,,0.00,,2013-02-17 08:52:00,
2013-02-17 01:01:00,42.0,3.0,29.79,East,90,3.0,5.0,19,0.00,,,0.00,,2013-02-17 09:01:00,
2013-02-17 01:11:00,42.0,3.0,29.79,East,90,3.0,5.0,19,0.00,,,0.00,,2013-02-17 09:11:00,
2013-02-17 01:21:00,41.0,2.0,29.79,East,90,4.0,5.0,19,0.00,,,0.00,,2013-02-17 09:21:00,
2013-02-17 01:31:00,42.0,3.0,29.79,East,90,4.0,5.0,19,0.00,,,0.00,,2013-02-17 09:31:00,
2013-02-17 01:41:00,42.0,3.0,29.79,East,90,4.0,5.0,19,0.00,,,0.00,,2013-02-17 09:41:00,
2013-02-17 01:52:00,41.0,2.0,29.79,East,90,3.0,5.0,19,0.00,,,0.00,,2013-02-17 09:52:00,
2013-02-17 02:01:00,40.0,1.0,29.76,East,90,3.0,5.0,19,0.00,,,0.00,,2013-02-17 10:01:00,
2013-02-17 02:11:00,40.0,1.0,29.76,East,90,0.0,5.0,19,0.00,,,0.00,,2013-02-17 10:11:00,
2013-02-17 02:21:00,40.0,1.0,29.76,East,90,0.0,5.0,19,0.00,,,0.00,,2013-02-17 10:21:00,
2013-02-17 02:31:00,38.0,1.0,29.76,East,90,1.0,3.0,20,0.00,,,0.00,,2013-02-17 10:31:00,
2013-02-17 02:41:00,38.0,1.0,29.76,East,90,1.0,3.0,20,0.00,,,0.00,,2013-02-17 10:41:00,
2013-02-17 02:52:00,37.0,0.0,29.76,East,90,1.0,2.0,20,0.00,,,0.00,,2013-02-17 10:52:00,
2013-02-17 03:01:00,37.0,0.0,29.76,East,90,3.0,5.0,20,0.00,,,0.00,,2013-02-17 11:01:00,
2013-02-17 03:21:00,38.0,1.0,29.73,East,90,0.0,3.0,20,0.00,,,0.00,,2013-02-17 11:21:00,
2013-02-17 03:32:00,37.0,0.0,29.76,East,90,0.0,0.0,20,0.00,,,0.00,,2013-02-17 11:32:00,
2013-02-17 03:41:00,37.0,0.0,29.76,East,90,0.0,0.0,20,0.00,,,0.00,,2013-02-17 11:41:00,
2013-02-17 03:52:00,40.0,1.0,29.73,East,90,4.0,6.0,19,0.00,,,0.00,,2013-02-17 11:52:00,
2013-02-17 04:02:00,40.0,1.0,29.73,East,90,3.0,5.0,19,0.00,,,0.00,,2013-02-17 12:02:00,
2013-02-17 04:22:00,40.0,1.0,29.73,East,90,3.0,5.0,19,0.00,,,0.00,,2013-02-17 12:22:00,
2013-02-17 04:31:00,39.0,1.0,29.73,East,90,3.0,5.0,20,0.00,,,0.00,,2013-02-17 12:31:00,
2013-02-17 04:42:00,39.0,1.0,29.73,East,90,3.0,5.0,20,0.00,,,0.00,,2013-02-17 12:42:00,
2013-02-17 04:52:00,38.0,1.0,29.73,East,90,5.0,6.0,20,0.00,,,0.00,,2013-02-17 12:52:00,
2013-02-17 05:01:00,38.0,1.0,29.70,East,90,0.0,2.0,20,0.00,,,0.00,,2013-02-17 13:01:00,
2013-02-17 05:21:00,39.0,1.0,29.73,East,90,0.0,0.0,20,0.00,,,0.00,,2013-02-17 13:21:00,
2013-02-17 05:32:00,38.0,1.0,29.73,East,90,1.0,5.0,20,0.00,,,0.00,,2013-02-17 13:32:00,
2013-02-17 05:41:00,38.0,1.0,29.73,East,90,1.0,5.0,20,0.00,,,0.00,,2013-02-17 13:41:00,
2013-02-17 05:52:00,38.0,1.0,29.70,East,90,0.0,2.0,20,0.00,,,0.00,,2013-02-17 13:52:00,
2013-02-17 06:01:00,36.0,-1.0,29.73,East,90,0.0,0.0,20,0.00,,,0.00,,2013-02-17 14:01:00,
2013-02-17 06:21:00,37.0,0.0,29.73,East,90,3.0,5.0,20,0.00,,,0.00,,2013-02-17 14:21:00,
2013-02-17 06:32:00,36.0,-1.0,29.73,East,90,0.0,0.0,20,0.00,,,0.00,,2013-02-17 14:32:00,
2013-02-17 06:42:00,36.0,-1.0,29.73,East,90,0.0,0.0,20,0.00,,,0.00,,2013-02-17 14:42:00,
2013-02-17 06:52:00,34.0,-2.0,29.73,East,90,0.0,0.0,21,0.00,,,0.00,,2013-02-17 14:52:00,
2013-02-17 07:01:00,34.0,-2.0,29.73,East,90,0.0,0.0,21,0.00,,,0.00,,2013-02-17 15:01:00,
2013-02-17 07:21:00,38.0,1.0,29.73,East,90,0.0,2.0,20,0.00,,,0.00,,2013-02-17 15:21:00,
2013-02-17 07:31:00,40.0,4.0,29.73,East,90,3.0,5.0,22,0.00,,,0.00,,2013-02-17 15:31:00,
2013-02-17 07:41:00,40.0,4.0,29.73,East,90,3.0,5.0,22,0.00,,,0.00,,2013-02-17 15:41:00,
2013-02-17 07:52:00,43.0,6.0,29.73,East,90,2.0,3.0,21,0.00,,,0.00,,2013-02-17 15:52:00,
2013-02-17 08:01:00,47.0,8.0,29.73,East,90,3.0,5.0,20,0.00,,,0.00,,2013-02-17 16:01:00,
2013-02-17 08:11:00,47.0,8.0,29.73,East,90,3.0,5.0,20,0.00,,,0.00,,2013-02-17 16:11:00,
2013-02-17 08:21:00,49.0,10.0,29.73,East,90,4.0,5.0,20,0.00,,,0.00,,2013-02-17 16:21:00,
2013-02-17 08:31:00,49.0,10.0,29.73,East,90,5.0,6.0,20,0.00,,,0.00,,2013-02-17 16:31:00,
2013-02-17 08:41:00,49.0,10.0,29.73,East,90,5.0,6.0,20,0.00,,,0.00,,2013-02-17 16:41:00,
2013-02-17 08:52:00,51.0,11.0,29.73,East,90,4.0,6.0,20,0.00,,,0.00,,2013-02-17 16:52:00,
2013-02-17 09:02:00,53.0,12.0,29.73,East,90,6.0,8.0,19,0.00,,,0.00,,2013-02-17 17:02:00,
2013-02-17 09:11:00,53.0,12.0,29.73,East,90,6.0,8.0,19,0.00,,,0.00,,2013-02-17 17:11:00,
2013-02-17 09:21:00,56.0,13.0,29.73,ESE,112,7.0,10.0,18,0.00,,,0.00,,2013-02-17 17:21:00,
2013-02-17 09:31:00,57.0,14.0,29.73,SE,135,7.0,9.0,18,0.00,,,0.00,,2013-02-17 17:31:00,
2013-02-17 09:41:00,57.0,14.0,29.73,SE,135,7.0,9.0,18,0.00,,,0.00,,2013-02-17 17:41:00,
2013-02-17 09:52:00,59.0,16.0,29.73,South,185,9.0,15.0,18,0.00,,,0.00,,2013-02-17 17:52:00,
2013-02-17 10:01:00,60.0,16.0,29.73,West,270,12.0,17.0,18,0.00,,,0.00,,2013-02-17 18:01:00,
2013-02-17 10:11:00,60.0,16.0,29.73,West,270,12.0,17.0,18,0.00,,,0.00,,2013-02-17 18:11:00,
2013-02-17 10:21:00,61.0,16.0,29.73,WNW,287,13.0,17.0,17,0.00,,,0.00,,2013-02-17 18:21:00,
2013-02-17 10:32:00,62.0,17.0,29.73,West,274,15.0,20.0,17,0.00,,,0.00,,2013-02-17 18:32:00,
2013-02-17 10:41:00,62.0,17.0,29.73,West,274,15.0,20.0,17,0.00,,,0.00,,2013-02-17 18:41:00,
2013-02-17 10:52:00,62.0,17.0,29.73,WNW,288,14.0,20.0,17,0.00,,,0.00,,2013-02-17 18:52:00,
2013-02-17 11:01:00,63.0,18.0,29.73,West,270,13.0,17.0,17,0.00,,,0.00,,2013-02-17 19:01:00,
2013-02-17 11:11:00,63.0,18.0,29.73,West,270,13.0,17.0,17,0.00,,,0.00,,2013-02-17 19:11:00,
2013-02-17 11:21:00,64.0,18.0,29.73,West,273,14.0,17.0,17,0.00,,,0.00,,2013-02-17 19:21:00,
2013-02-17 11:31:00,63.0,18.0,29.73,West,264,16.0,22.0,17,0.00,,,0.00,,2013-02-17 19:31:00,
2013-02-17 11:41:00,63.0,18.0,29.73,West,264,16.0,22.0,17,0.00,,,0.00,,2013-02-17 19:41:00,
2013-02-17 11:52:00,63.0,18.0,29.73,West,264,16.0,22.0,17,0.00,,,0.00,,2013-02-17 19:52:00,
2013-02-17 12:01:00,65.0,18.0,29.73,West,278,11.0,15.0,16,0.00,,,0.00,,2013-02-17 20:01:00,
2013-02-17 12:11:00,65.0,18.0,29.73,West,278,11.0,15.0,16,0.00,,,0.00,,2013-02-17 20:11:00,
2013-02-17 12:21:00,65.0,18.0,29.73,West,270,13.0,17.0,16,0.00,,,0.00,,2013-02-17 20:21:00,
2013-02-17 12:31:00,65.0,18.0,29.73,WNW,293,16.0,20.0,16,0.00,,,0.00,,2013-02-17 20:31:00,
2013-02-17 12:42:00,65.0,18.0,29.73,WNW,293,16.0,20.0,16,0.00,,,0.00,,2013-02-17 20:42:00,
2013-02-17 12:52:00,66.0,19.0,29.73,West,274,13.0,18.0,16,0.00,,,0.00,,2013-02-17 20:52:00,
2013-02-17 13:01:00,66.0,19.0,29.70,WNW,284,12.0,20.0,16,0.00,,,0.00,,2013-02-17 21:01:00,
2013-02-17 13:11:00,66.0,19.0,29.70,WNW,284,12.0,20.0,16,0.00,,,0.00,,2013-02-17 21:11:00,
2013-02-17 13:21:00,66.0,19.0,29.70,West,270,13.0,18.0,16,0.00,,,0.00,,2013-02-17 21:21:00,
2013-02-17 13:31:00,67.0,19.0,29.70,WNW,285,12.0,17.0,16,0.00,,,0.00,,2013-02-17 21:31:00,
2013-02-17 13:41:00,67.0,19.0,29.70,WNW,285,12.0,17.0,16,0.00,,,0.00,,2013-02-17 21:41:00,
2013-02-17 13:52:00,66.0,19.0,29.70,West,270,15.0,20.0,16,0.00,,,0.00,,2013-02-17 21:52:00,
2013-02-17 14:01:00,66.0,19.0,29.70,West,280,13.0,17.0,16,0.00,,,0.00,,2013-02-17 22:01:00,
2013-02-17 14:11:00,66.0,19.0,29.70,West,280,13.0,17.0,16,0.00,,,0.00,,2013-02-17 22:11:00,
2013-02-17 14:21:00,67.0,19.0,29.70,WSW,257,14.0,23.0,16,0.00,,,0.00,,2013-02-17 22:21:00,
2013-02-17 14:32:00,67.0,19.0,29.70,West,270,16.0,22.0,16,0.00,,,0.00,,2013-02-17 22:32:00,
2013-02-17 14:41:00,67.0,19.0,29.70,West,270,16.0,22.0,16,0.00,,,0.00,,2013-02-17 22:41:00,
2013-02-17 14:52:00,67.0,19.0,29.70,WNW,283,10.0,16.0,16,0.00,,,0.00,,2013-02-17 22:52:00,
2013-02-17 15:01:00,67.0,19.0,29.70,West,270,9.0,17.0,16,0.00,,,0.00,,2013-02-17 23:01:00,
2013-02-17 15:11:00,67.0,19.0,29.70,West,270,9.0,17.0,16,0.00,,,0.00,,2013-02-17 23:11:00,
2013-02-17 15:21:00,66.0,19.0,29.70,West,270,11.0,17.0,16,0.00,,,0.00,,2013-02-17 23:21:00,
2013-02-17 15:31:00,66.0,19.0,29.73,West,270,11.0,15.0,16,0.00,,,0.00,,2013-02-17 23:31:00,
2013-02-17 15:41:00,66.0,19.0,29.73,West,270,11.0,15.0,16,0.00,,,0.00,,2013-02-17 23:41:00,
2013-02-17 15:52:00,66.0,19.0,29.70,West,270,11.0,15.0,16,0.00,,,0.00,,2013-02-17 23:52:00,
2013-02-17 16:01:00,66.0,19.0,29.70,West,280,7.0,14.0,16,0.00,,,0.00,,2013-02-18 00:01:00,
2013-02-17 16:11:00,66.0,19.0,29.70,West,280,7.0,14.0,16,0.00,,,0.00,,2013-02-18 00:11:00,
2013-02-17 16:22:00,66.0,19.0,29.73,West,270,8.0,13.0,16,0.00,,,0.00,,2013-02-18 00:22:00,
2013-02-17 16:31:00,66.0,19.0,29.70,WNW,301,8.0,12.0,16,0.00,,,0.00,,2013-02-18 00:31:00,
2013-02-17 16:41:00,66.0,19.0,29.70,WNW,301,8.0,12.0,16,0.00,,,0.00,,2013-02-18 00:41:00,
2013-02-17 16:52:00,65.0,18.0,29.70,WNW,284,9.0,10.0,16,0.00,,,0.00,,2013-02-18 00:52:00,
2013-02-17 17:01:00,64.0,18.0,29.70,West,270,10.0,12.0,17,0.00,,,0.00,,2013-02-18 01:01:00,
2013-02-17 17:11:00,64.0,18.0,29.70,West,270,10.0,12.0,17,0.00,,,0.00,,2013-02-18 01:11:00,
2013-02-17 17:21:00,64.0,18.0,29.70,West,270,7.0,9.0,17,0.00,,,0.00,,2013-02-18 01:21:00,
2013-02-17 17:31:00,62.0,17.0,29.70,West,270,9.0,10.0,17,0.00,,,0.00,,2013-02-18 01:31:00,
2013-02-17 17:41:00,62.0,17.0,29.70,West,270,9.0,10.0,17,0.00,,,0.00,,2013-02-18 01:41:00,
2013-02-17 17:51:00,60.0,16.0,29.70,West,270,7.0,8.0,18,0.00,,,0.00,,2013-02-18 01:51:00,
2013-02-17 18:01:00,58.0,15.0,29.70,West,270,5.0,6.0,18,0.00,,,0.00,,2013-02-18 02:01:00,
2013-02-17 18:11:00,58.0,15.0,29.70,West,270,5.0,6.0,18,0.00,,,0.00,,2013-02-18 02:11:00,
2013-02-17 18:21:00,58.0,15.0,29.70,West,270,5.0,8.0,18,0.00,,,0.00,,2013-02-18 02:21:00,
2013-02-17 18:31:00,55.0,14.0,29.70,West,270,2.0,5.0,19,0.00,,,0.00,,2013-02-18 02:31:00,
2013-02-17 18:41:00,55.0,14.0,29.70,West,270,2.0,5.0,19,0.00,,,0.00,,2013-02-18 02:41:00,
2013-02-17 18:51:00,54.0,13.0,29.73,West,270,3.0,6.0,19,0.00,,,0.00,,2013-02-18 02:51:00,
2013-02-17 19:01:00,53.0,12.0,29.73,West,270,3.0,5.0,19,0.00,,,0.00,,2013-02-18 03:01:00,
2013-02-17 19:11:00,53.0,12.0,29.73,West,270,3.0,5.0,19,0.00,,,0.00,,2013-02-18 03:11:00,
2013-02-17 19:21:00,53.0,12.0,29.73,West,270,5.0,6.0,19,0.00,,,0.00,,2013-02-18 03:21:00,
2013-02-17 19:31:00,52.0,12.0,29.73,West,270,1.0,5.0,20,0.00,,,0.00,,2013-02-18 03:31:00,
2013-02-17 19:41:00,52.0,12.0,29.73,West,270,1.0,5.0,20,0.00,,,0.00,,2013-02-18 03:41:00,
2013-02-17 19:52:00,51.0,11.0,29.70,West,270,3.0,5.0,20,0.00,,,0.00,,2013-02-18 03:52:00,
2013-02-17 20:01:00,51.0,11.0,29.73,West,270,1.0,5.0,20,0.00,,,0.00,,2013-02-18 04:01:00,
2013-02-17 20:11:00,51.0,11.0,29.73,West,270,1.0,5.0,20,0.00,,,0.00,,2013-02-18 04:11:00,
2013-02-17 20:21:00,49.0,10.0,29.73,West,270,2.0,5.0,20,0.00,,,0.00,,2013-02-18 04:21:00,
2013-02-17 20:32:00,48.0,9.0,29.73,West,270,0.0,0.0,20,0.00,,,0.00,,2013-02-18 04:32:00,
2013-02-17 20:41:00,48.0,9.0,29.73,West,270,0.0,0.0,20,0.00,,,0.00,,2013-02-18 04:41:00,
2013-02-17 20:52:00,46.0,7.0,29.73,West,270,0.0,0.0,20,0.00,,,0.00,,2013-02-18 04:52:00,
2013-02-17 21:01:00,43.0,6.0,29.73,West,270,0.0,3.0,21,0.00,,,0.00,,2013-02-18 05:01:00,
2013-02-17 21:21:00,43.0,6.0,29.76,West,270,3.0,5.0,21,0.00,,,0.00,,2013-02-18 05:21:00,
2013-02-17 21:31:00,43.0,6.0,29.76,West,270,2.0,3.0,21,0.00,,,0.00,,2013-02-18 05:31:00,
2013-02-17 21:41:00,43.0,6.0,29.76,West,270,2.0,3.0,21,0.00,,,0.00,,2013-02-18 05:41:00,
2013-02-17 21:51:00,45.0,7.0,29.76,West,270,2.0,3.0,21,0.00,,,0.00,,2013-02-18 05:51:00,
2013-02-17 22:02:00,45.0,7.0,29.76,West,270,2.0,5.0,21,0.00,,,0.00,,2013-02-18 06:02:00,
2013-02-17 22:21:00,45.0,7.0,29.76,West,270,3.0,5.0,21,0.00,,,0.00,,2013-02-18 06:21:00,
2013-02-17 22:31:00,46.0,8.0,29.76,West,270,5.0,6.0,21,0.00,,,0.00,,2013-02-18 06:31:00,
2013-02-17 22:41:00,46.0,8.0,29.76,West,270,5.0,6.0,21,0.00,,,0.00,,2013-02-18 06:41:00,
2013-02-17 22:51:00,46.0,8.0,29.76,West,270,5.0,6.0,21,0.00,,,0.00,,2013-02-18 06:51:00,
2013-02-17 23:01:00,44.0,7.0,29.76,West,270,2.0,5.0,21,0.00,,,0.00,,2013-02-18 07:01:00,
2013-02-17 23:21:00,44.0,7.0,29.76,West,270,3.0,5.0,21,0.00,,,0.00,,2013-02-18 07:21:00,
2013-02-17 23:31:00,43.0,7.0,29.76,West,270,1.0,3.0,22,0.00,,,0.00,,2013-02-18 07:31:00,
2013-02-17 23:42:00,43.0,7.0,29.76,West,270,1.0,3.0,22,0.00,,,0.00,,2013-02-18 07:42:00,
2013-02-17 23:51:00,42.0,6.0,29.76,West,270,2.0,5.0,22,0.00,,,0.00,,2013-02-18 07:51:00,